Terminal Aerodrome Forecast
Issued by NWS

Home | Current Version | Previous Version | Text Only | Print | Product List | Glossary On
Versions: 1 2 3 4 5 6 7 8 9 10 11 12 13 14 15
000
FTUS42 TJSJ 181100 RRA
TAFISX
TAF
TISX 181139Z 1812/1912 08014G21KT P6SM VCSH SCT022 SCT040
      TEMPO 1812/1814 VRB13G24KT 5SM SHRA BKN025
     FM181430 10018KT P6SM SCT030 SCT070
     FM182330 09012KT P6SM FEW025 SCT050 SCT070=

USA.gov is the U.S. government's official web portal to all federal, state and local government web resources and services.